Home > Time Zones > World Clock > Weather > China > Wuhan > Past weeks

Flag for China Weather past 2 weeks in Wuhan, Hubei, China

Now
66 °F

Clear.


Feels Like: 66 °F
Forecast: 65 / 84 °F
Wind: 10 mph from Southeast

Location: Wuhan Airport

Current Time: Mar 30, 2015 at 8:57:47 PM

Latest Report: Mar 30, 2015 at 8:00 PM


Visibility: 4 mi

Pressure: 29.77 "Hg

Humidity: 88%

Dew point: 63 °F

Location of WuhanLocation

Historic Weather in Wuhan — Graph

°F

Wuhan temperature yesterday

Maximum temperature yesterday: 66 °F (at 10:00 AM)
Minimum temperature yesterday: 57 °F (at 1:00 AM)
Average temperature yesterday: 61 °F

Past Weeks' High & Low Weather Summary

 TemperatureHumidityPressure
High73 °F (Mar 22, 3:00 PM)100% (Mar 17, 4:00 PM)30.42 "Hg (Mar 17, 4:00 PM)
Low45 °F (Mar 27, 6:00 AM)29% (Mar 22, 5:00 PM)29.68 "Hg (Mar 17, 2:00 PM)
Average58 °F80%30.10 "Hg
* Reported Mar 15 7:00 PM — Mar 30 7:00 PM, Wuhan, Weather by CustomWeather, © 2015

Note: Actual official high and low records may vary slightly from our data, if they occured in-between our weather recording intervals... More about our weather records

Advertising

Wuhan weather history for previous 24 hours

 ConditionsComfort  
Time TempWeatherWind HumidityBarometerVisibility
7:00 PM
Mon, Mar 30
66 °FFog.8 mph88%29.77 "Hg3 mi
6:00 PM68 °FFog.8 mph83%29.74 "Hg3 mi
5:00 PM70 °FFog.6 mph78%29.77 "Hg3 mi
4:00 PM68 °FFog.6 mph83%29.77 "Hg3 mi
3:00 PM68 °FScattered clouds.8 mph78%29.80 "Hg4 mi
2:00 PM66 °FFog.8 mph88%29.83 "Hg2 mi
1:00 PM64 °FFog.6 mph88%29.86 "Hg2 mi
12:00 PM64 °FFog.6 mph88%29.86 "Hg1 mi
11:00 AM63 °FFog.3 mph94%29.89 "Hg1 mi
10:00 AM63 °FLight rain. Fog.3 mph94%29.89 "Hg1 mi
9:00 AM61 °FLight rain. Fog.1 mph100%29.89 "Hg1 mi
8:00 AM63 °FFog.1 mph94%29.86 "Hg1 mi
7:00 AM61 °FFog.1 mph100%29.86 "Hg1 mi
6:00 AM61 °FFog.No wind94%29.83 "Hg1 mi
5:00 AM61 °FFog.3 mph94%29.83 "Hg1 mi
4:00 AM61 °FFog.1 mph94%29.83 "Hg1 mi
3:00 AM61 °FFog.3 mph94%29.83 "Hg1 mi
2:00 AM61 °FFog.6 mph94%29.83 "Hg2 mi
1:00 AM61 °FFog.8 mph94%29.86 "Hg1 mi
12:00 AM61 °FFog.6 mph94%29.89 "Hg2 mi
11:00 PM
Sun, Mar 29
61 °FFog.6 mph94%29.89 "Hg2 mi
10:00 PM61 °FLight rain. Fog.13 mph94%29.89 "Hg2 mi
9:00 PM61 °FLight rain. Fog.10 mph94%29.89 "Hg2 mi
8:00 PM61 °FLight rain. Fog.3 mph94%29.92 "Hg2 mi
Weather by CustomWeather, © 2015

See weather overviewHow to use our weather pages